Find Chuangxin-1 04

NORAD ID: 40137 Int'l Des: 2014-051 Owner: CAST Country: CN operational
LEOCIRCULARRETROGRADESSO

实时位置

正在加载3D地球...

关于 Chuangxin-1 04

正在加载描述...

即将过境

Passes for default location (London). Set your location on the main map for personalized predictions.

高度历史

Loading altitude history...

两行轨道根数

1 40137U 14051B 26107.23361922 .00000024 00000-0 26307-4 0 9998
2 40137 98.7063 109.0121 0022320 356.1884 3.9125 14.30397118605837
Epoch: Apr 17, 2026 • Age: 9 hours

当前状态

高度 788.5 km
速度 7.47 km/s
星下点 48.44°N, 40.33°E
发射日期 Sep 4, 2014
运行时间 11.6 years
类型 other

技术详情

分类 Payload
质量 90.00 kg
干质量 90.00 kg
总质量 90.00 kg
长度 0.50 m
直径 0.50 m
跨度 0.50 m
形状 Box
制造商 SECM
平台类型 CX
阶段状态 In Orbit
所有者/国家 CAST/CN

Most Searched